[[{"header":{"parameterUnit":"m.s-1","parameterCategory":1,"la1":30.2991,"la2":30.254,"lo1":-89.0895,"lo2":-89.0444,"dy":0.0017,"dx":0.0017,"nx":28,"ny":28,"refTime":"2025-12-23T03:00:00:Z","depth":0,"parameterNumber":2,"parameterNumberName":"U-component_of_WINDS"},"data":[0,0,0,0,0,0,0,0,0,0,0,0,0,0,0,0,0,0,0,0,0,0,0,0,0,0,0,0,0,0,0,0,0,0,0,0,0,0,0,0,0,0,0,0,0,0,0,0,0,0,0,0,0,0,0,0,0,0,-1.3572,-1.3572,0,-1.3586,-1.3586,-1.3586,-1.3527,-1.3525,-1.3524,-1.3522,-1.3536,-1.3538,-1.354,0,0,0,0,0,0,0,0,0,0,0,0,0,-1.3495,-1.3497,-1.3572,-1.3572,-1.3573,-1.3586,-1.3586,-1.3586,-1.3527,-1.3525,-1.3523,-1.3521,-1.3535,-1.3538,-1.354,0,0,0,0,0,0,0,0,0,0,0,0,0,-1.3521,-1.3497,-1.3572,-1.3545,-1.3543,-1.3586,-1.3586,-1.3587,-1.3528,-1.3525,-1.3523,-1.352,-1.3535,-1.3538,-1.354,-1.3611,0,0,-1.355,-1.3551,0,0,0,0,0,0,0,0,-1.3519,-1.3523,-1.3549,-1.3547,-1.3544,-1.3552,-1.3564,-1.3595,-1.3529,-1.3533,-1.3522,-1.3519,-1.3544,-1.3546,-1.3554,-1.3612,-1.3612,-1.355,-1.3552,-1.3553,-1.3554,0,0,0,0,0,0,0,-1.3517,-1.3523,-1.3578,-1.3549,-1.3546,-1.3532,-1.3533,-1.357,-1.3553,-1.3533,-1.3529,-1.3531,-1.3542,-1.3551,-1.3554,-1.3612,-1.355,-1.3552,-1.3554,-1.3555,-1.3729,-1.3732,0,0,0,0,0,0,-1.3519,-1.3521,-1.3577,-1.3578,-1.3525,-1.3535,-1.3536,-1.3552,-1.3552,-1.355,-1.3533,-1.3528,-1.3547,-1.355,-1.3554,-1.3637,-1.3553,-1.3556,-1.3557,-1.3726,-1.373,-1.3733,0,0,0,0,0,0,-1.3518,-1.3525,-1.3577,-1.3549,-1.3554,-1.3539,-1.3558,-1.3554,-1.3563,-1.3553,-1.3549,-1.3546,-1.3545,-1.355,-1.3597,-1.3636,-1.3557,-1.356,-1.3723,-1.3727,-1.3731,-1.3803,0,0,0,0,0,0,-1.3516,-1.3525,-1.3551,-1.355,-1.3556,-1.362,-1.356,-1.3556,-1.3569,-1.3562,-1.3564,-1.3561,-1.3544,-1.3593,-1.36,-1.3639,-1.3562,-1.3719,-1.3725,-1.373,-1.3797,-1.3809,-1.3819,0,0,0,0,0,-1.3513,-1.3571,-1.3553,-1.356,-1.3589,-1.3622,-1.3626,-1.3604,-1.3572,-1.3599,-1.3592,-1.3561,-1.3631,-1.3599,-1.3606,-1.3646,-1.3717,-1.3723,-1.3729,-1.3792,-1.3806,-1.3819,0,0,0,0,0,0,-1.3577,-1.357,-1.355,-1.3609,-1.3617,-1.3612,-1.3645,-1.3621,-1.3638,-1.3631,-1.3604,-1.3604,-1.3657,-1.3656,-1.362,-1.3715,-1.3668,-1.3676,-1.3713,-1.3727,-1.3738,-1.3737,-1.3565,0,0,0,0,0,-1.3598,-1.3626,-1.3618,-1.3671,-1.3676,-1.366,-1.3674,-1.3657,-1.3664,-1.3667,-1.3663,-1.3671,-1.3695,-1.3711,-1.3732,-1.3796,-1.3796,-1.3828,-1.3839,-1.3848,-1.3856,-1.389,-1.3904,-1.3753,-1.3753,-1.3753,0,0,-1.3642,-1.3641,-1.366,-1.3684,-1.3688,-1.3717,-1.3663,-1.3696,-1.3718,-1.3672,-1.3716,-1.3714,-1.3721,-1.3778,-1.3802,-1.3779,-1.3897,-1.3856,-1.3864,-1.3866,-1.3898,-1.3912,-1.3925,-1.3758,-1.3757,-1.3756,0,0,-1.3736,-1.3738,-1.3782,-1.3788,-1.3795,-1.3784,-1.3795,-1.3794,-1.3791,-1.3835,-1.3801,-1.3827,-1.3868,-1.3874,-1.3883,-1.398,-1.3953,-1.3988,-1.4046,-1.408,-1.4092,-1.4102,-1.4137,-1.415,-1.3995,-1.3996,-1.3996,0,-1.3789,-1.3832,-1.3808,-1.3844,-1.3855,-1.3815,-1.3859,-1.3866,-1.3879,-1.3888,-1.3861,-1.3913,-1.3914,-1.3972,-1.3996,-1.4004,-1.4015,-1.3988,-1.4092,-1.4102,-1.4112,-1.4145,-1.4158,-1.4,-1.3999,-1.3999,-1.3999,0,-1.3897,-1.3927,-1.3962,-1.3977,-1.3992,-1.4032,-1.4014,-1.4033,-1.4014,-1.4006,-1.4052,-1.4053,-1.4074,-1.4086,-1.4069,-1.4142,-1.4127,-1.4097,-1.405,-1.4131,-1.4161,-1.4173,-1.4006,-1.4004,-1.4003,-1.4002,0,0,-1.4031,-1.4032,-1.4046,-1.4052,-1.4057,-1.408,-1.4118,-1.4138,-1.4155,-1.4166,-1.4197,-1.4233,-1.4206,-1.4216,-1.4198,-1.4228,-1.4305,-1.4194,-1.4194,-1.4215,-1.4385,-1.4408,-1.4423,-1.4287,-1.429,-1.4291,-1.4385,0,-1.4124,-1.4189,-1.4169,-1.4235,-1.4263,-1.4225,-1.4259,-1.4266,-1.4259,-1.4282,-1.4275,-1.4301,-1.4263,-1.4269,-1.4296,-1.429,-1.4339,-1.4283,-1.4316,-1.4318,-1.4315,-1.4439,-1.4462,-1.455,-1.4397,-1.4399,-1.44,0,-1.424,-1.4256,-1.4325,-1.4325,-1.4336,-1.4367,-1.4384,-1.4406,-1.4413,-1.4406,-1.4418,-1.4395,-1.4433,-1.4386,-1.4437,-1.4399,-1.4412,-1.4411,-1.4414,-1.4416,-1.4364,-1.4444,-1.4578,-1.4591,-1.4418,-1.4417,-1.4416,0,-1.4331,-1.4369,-1.4416,-1.4422,-1.4424,-1.4446,-1.4448,-1.4452,-1.4466,-1.4481,-1.449,-1.4509,-1.452,-1.4535,-1.4518,-1.4486,-1.4572,-1.4524,-1.4568,-1.4569,-1.4588,-1.4587,-1.4726,-1.4596,-1.4596,-1.4596,-1.4596,0,-1.4436,-1.448,-1.4457,-1.4485,-1.4533,-1.451,-1.4558,-1.4555,-1.456,-1.4587,-1.4556,-1.4582,-1.4557,-1.4582,-1.4568,-1.4613,-1.4618,-1.4614,-1.461,-1.4617,-1.4617,-1.4624,-1.4617,-1.4599,-1.4599,-1.4598,-1.4597,0,-1.4545,-1.4532,-1.458,-1.4578,-1.4578,-1.4614,-1.4612,-1.4638,-1.463,-1.4665,-1.4672,-1.4659,-1.4686,-1.467,-1.4698,-1.4689,-1.4747,-1.4735,-1.4745,-1.4741,-1.4786,-1.4782,-1.4934,-1.4953,-1.4812,-1.4813,-1.4815,0,-1.4613,-1.4646,-1.4648,-1.4664,-1.4668,-1.4694,-1.4708,-1.4687,-1.4703,-1.4713,-1.4738,-1.4763,-1.4781,-1.4825,-1.4818,-1.4839,-1.4827,-1.4879,-1.483,-1.4836,-1.4828,-1.4826,-1.4829,-1.4889,-1.489,-1.4892,-1.4893,0,-1.4735,-1.4727,-1.4748,-1.4768,-1.4785,-1.4799,-1.4811,-1.4826,-1.4804,-1.4824,-1.4851,-1.4865,-1.4893,-1.4918,-1.4936,-1.4937,-1.4912,-1.4908,-1.492,-1.4927,-1.4931,-1.4929,-1.4771,-1.4905,-1.4904,-1.4903,-1.4902,-1.4902,-1.4826,-1.4853,-1.4859,-1.4884,-1.489,-1.4902,-1.4926,-1.4922,-1.4944,-1.4965,-1.4951,-1.4983,-1.499,-1.5011,-1.5016,-1.5041,-1.502,-1.5036,-1.504,-1.5045,-1.5051,-1.4928,-1.5044,-1.5044,-1.5043,-1.5043,-1.5043,0,-1.4946,-1.4948,-1.4971,-1.4988,-1.5008,-1.4982,-1.4994,-1.5012,-1.5041,-1.5049,-1.5068,-1.5099,-1.5123,-1.5118,-1.5139,-1.516,-1.5149,-1.5166,-1.5164,-1.5165,-1.5068,-1.5056,-1.5175,-1.5175,-1.5175,-1.5175,-1.5175,-1.5175,-1.501,-1.5056,-1.5048,-1.5096,-1.5098,-1.5129,-1.5138,-1.5149,-1.5155,-1.5192,-1.5211,-1.5208,-1.5211,-1.5232,-1.5253,-1.5251,-1.526,-1.5282,-1.5276,-1.5185,-1.5172,-1.516,-1.5148,-1.5284,-1.5284,-1.537,-1.5371,-1.5372]},{"header":{"parameterUnit":"m.s-1","parameterCategory":1,"la1":30.2991,"la2":30.254,"lo1":-89.0895,"lo2":-89.0444,"dy":0.0017,"dx":0.0017,"nx":28,"ny":28,"refTime":"2025-12-23T03:00:00:Z","depth":0,"parameterNumber":3,"parameterNumberName":"V-component_of_WINDS"},"data":[0,0,0,0,0,0,0,0,0,0,0,0,0,0,0,0,0,0,0,0,0,0,0,0,0,0,0,0,0,0,0,0,0,0,0,0,0,0,0,0,0,0,0,0,0,0,0,0,0,0,0,0,0,0,0,0,0,0,-0.3715,-0.3715,0,-0.3693,-0.3693,-0.3692,-0.3657,-0.3656,-0.3655,-0.3655,-0.3633,-0.3633,-0.3633,0,0,0,0,0,0,0,0,0,0,0,0,0,-0.3727,-0.3727,-0.3715,-0.3715,-0.3715,-0.3693,-0.3693,-0.3692,-0.3657,-0.3656,-0.3655,-0.3654,-0.3633,-0.3633,-0.3633,0,0,0,0,0,0,0,0,0,0,0,0,0,-0.3715,-0.3727,-0.3715,-0.3694,-0.3692,-0.3693,-0.3693,-0.3692,-0.3657,-0.3656,-0.3655,-0.3654,-0.3633,-0.3633,-0.3633,-0.3653,0,0,-0.3633,-0.3633,0,0,0,0,0,0,0,0,-0.3716,-0.3715,-0.3697,-0.3696,-0.3693,-0.3676,-0.3689,-0.3679,-0.3657,-0.367,-0.3655,-0.3653,-0.3648,-0.3647,-0.3645,-0.3652,-0.3651,-0.3633,-0.3633,-0.3633,-0.3633,0,0,0,0,0,0,0,-0.3717,-0.3715,-0.3706,-0.3697,-0.3695,-0.3686,-0.3683,-0.3687,-0.3665,-0.3669,-0.3666,-0.3664,-0.3647,-0.3645,-0.3644,-0.3651,-0.3633,-0.3633,-0.3633,-0.3633,-0.3673,-0.3674,0,0,0,0,0,0,-0.372,-0.3716,-0.3707,-0.3706,-0.3702,-0.3686,-0.3683,-0.3683,-0.3665,-0.3661,-0.3665,-0.3663,-0.3646,-0.3644,-0.3644,-0.3665,-0.3633,-0.3633,-0.3633,-0.3672,-0.3673,-0.3674,0,0,0,0,0,0,-0.3721,-0.372,-0.3708,-0.371,-0.3708,-0.3687,-0.3687,-0.3683,-0.3681,-0.3662,-0.3658,-0.3667,-0.3645,-0.3643,-0.3651,-0.3664,-0.3633,-0.3634,-0.367,-0.3672,-0.3673,-0.3709,0,0,0,0,0,0,-0.3721,-0.372,-0.3728,-0.3711,-0.3708,-0.3716,-0.3688,-0.3683,-0.3681,-0.3678,-0.3663,-0.3659,-0.3644,-0.3651,-0.3651,-0.3663,-0.3634,-0.3669,-0.3671,-0.3673,-0.3707,-0.3712,-0.3716,0,0,0,0,0,-0.3722,-0.3739,-0.3728,-0.3727,-0.3717,-0.3716,-0.3715,-0.3696,-0.3682,-0.3689,-0.3677,-0.366,-0.3663,-0.3652,-0.3652,-0.3664,-0.3668,-0.3671,-0.3673,-0.3705,-0.3711,-0.3716,0,0,0,0,0,0,-0.3759,-0.3737,-0.3724,-0.3737,-0.3729,-0.371,-0.3719,-0.3704,-0.37,-0.3697,-0.3674,-0.3671,-0.3681,-0.3674,-0.3662,-0.3682,-0.3663,-0.3665,-0.3687,-0.3693,-0.3697,-0.3699,-0.3634,0,0,0,0,0,-0.3768,-0.377,-0.375,-0.3763,-0.376,-0.374,-0.3739,-0.3725,-0.3716,-0.3713,-0.3701,-0.3693,-0.3692,-0.3692,-0.369,-0.3705,-0.3701,-0.3714,-0.3719,-0.3723,-0.3725,-0.3732,-0.3737,-0.3681,-0.3681,-0.3681,0,0,-0.3788,-0.3776,-0.3779,-0.377,-0.3762,-0.3764,-0.3738,-0.3741,-0.3742,-0.3714,-0.372,-0.3711,-0.37,-0.3712,-0.3716,-0.3706,-0.3739,-0.3726,-0.3729,-0.3729,-0.3735,-0.374,-0.3745,-0.3683,-0.3683,-0.3682,0,0,-0.3825,-0.3817,-0.3826,-0.3818,-0.3806,-0.3793,-0.3796,-0.3779,-0.3772,-0.3778,-0.3756,-0.3757,-0.3756,-0.3749,-0.3746,-0.3779,-0.3763,-0.378,-0.3804,-0.3811,-0.3815,-0.3819,-0.383,-0.3835,-0.3782,-0.3782,-0.3782,0,-0.3852,-0.3853,-0.3833,-0.3837,-0.3834,-0.3807,-0.3816,-0.381,-0.3799,-0.3797,-0.3785,-0.3783,-0.3774,-0.3783,-0.3791,-0.3789,-0.3791,-0.3781,-0.3816,-0.382,-0.3823,-0.3833,-0.3838,-0.3784,-0.3784,-0.3783,-0.3783,0,-0.3886,-0.3887,-0.3896,-0.3885,-0.3883,-0.3889,-0.387,-0.387,-0.3856,-0.3844,-0.385,-0.3838,-0.3833,-0.3834,-0.3821,-0.3841,-0.3835,-0.382,-0.38,-0.383,-0.384,-0.3844,-0.3787,-0.3786,-0.3785,-0.3785,0,0,-0.3946,-0.3923,-0.3926,-0.392,-0.3905,-0.3906,-0.3911,-0.3906,-0.3906,-0.3899,-0.3902,-0.3902,-0.3887,-0.3883,-0.3869,-0.3876,-0.3902,-0.386,-0.3859,-0.3868,-0.3923,-0.3934,-0.3939,-0.3891,-0.3892,-0.3893,-0.3923,0,-0.398,-0.3987,-0.3968,-0.398,-0.3981,-0.3956,-0.396,-0.3952,-0.394,-0.3939,-0.3927,-0.3927,-0.3908,-0.3906,-0.391,-0.3898,-0.3913,-0.3895,-0.3894,-0.3895,-0.3898,-0.3944,-0.3956,-0.3985,-0.3927,-0.3928,-0.3928,0,-0.402,-0.4014,-0.4026,-0.4009,-0.4009,-0.4013,-0.4006,-0.4006,-0.3995,-0.3986,-0.3981,-0.3965,-0.3969,-0.3949,-0.3954,-0.3943,-0.3941,-0.3935,-0.3936,-0.3935,-0.3913,-0.3944,-0.3995,-0.3999,-0.3934,-0.3933,-0.3933,0,-0.4062,-0.4057,-0.4063,-0.4059,-0.404,-0.4043,-0.4036,-0.4024,-0.4022,-0.4015,-0.4014,-0.4008,-0.4005,-0.4002,-0.3984,-0.3971,-0.3991,-0.397,-0.3984,-0.3984,-0.3989,-0.3989,-0.404,-0.3989,-0.3989,-0.3989,-0.3988,0,-0.4101,-0.411,-0.4082,-0.4086,-0.4094,-0.4072,-0.4081,-0.4071,-0.406,-0.4062,-0.404,-0.4042,-0.4018,-0.4018,-0.4004,-0.401,-0.4009,-0.4002,-0.3998,-0.4004,-0.4004,-0.4002,-0.4,-0.399,-0.3989,-0.3989,-0.3989,0,-0.415,-0.4131,-0.4136,-0.4117,-0.4113,-0.412,-0.4104,-0.4106,-0.4093,-0.4095,-0.4095,-0.4075,-0.4073,-0.4054,-0.4049,-0.4039,-0.405,-0.4043,-0.4054,-0.4051,-0.4066,-0.4065,-0.4117,-0.4122,-0.4068,-0.4069,-0.4069,0,-0.4176,-0.4181,-0.4163,-0.4162,-0.4155,-0.4154,-0.4151,-0.4129,-0.4127,-0.4115,-0.4119,-0.4115,-0.4111,-0.4109,-0.4094,-0.4089,-0.4081,-0.41,-0.408,-0.4085,-0.4081,-0.4081,-0.4081,-0.4104,-0.4104,-0.4105,-0.4106,0,-0.4224,-0.4214,-0.4211,-0.4204,-0.4201,-0.4195,-0.4187,-0.4188,-0.4164,-0.4163,-0.416,-0.4157,-0.415,-0.4146,-0.4139,-0.4131,-0.4114,-0.4112,-0.4114,-0.412,-0.4126,-0.4123,-0.4065,-0.4111,-0.411,-0.411,-0.4109,-0.4109,-0.4262,-0.4265,-0.4252,-0.4249,-0.4241,-0.4234,-0.4235,-0.4222,-0.4219,-0.4212,-0.42,-0.4198,-0.4187,-0.4175,-0.4168,-0.4167,-0.4158,-0.4162,-0.4163,-0.4164,-0.4167,-0.4127,-0.4166,-0.4166,-0.4166,-0.4165,-0.4165,0,-0.4308,-0.4298,-0.4296,-0.4285,-0.4282,-0.4266,-0.4257,-0.4256,-0.4255,-0.4245,-0.4241,-0.4238,-0.4234,-0.4218,-0.4213,-0.4215,-0.4207,-0.4214,-0.4214,-0.4212,-0.4176,-0.4174,-0.422,-0.422,-0.422,-0.422,-0.422,-0.422,-0.4332,-0.4337,-0.4326,-0.4326,-0.4316,-0.4315,-0.4311,-0.4304,-0.4296,-0.4293,-0.429,-0.4279,-0.4267,-0.426,-0.4256,-0.4251,-0.425,-0.426,-0.4253,-0.422,-0.4215,-0.421,-0.4207,-0.426,-0.426,-0.4288,-0.4289,-0.4289]}]]